Harrisburg, IL

5:35 AM CDT on March 30, 2017 (GMT -0500)
Harrisburg-Raleigh

Weather History for KHSB - October, 2013

Change the Weather History Date:

Saturday, October 12, 2013

  Actual Average (KMWA) Record (KMWA)
Temperature  
Mean Temperature 63 °F -  
Max Temperature 73 °F 70 °F 84 °F (1973)
Min Temperature 53 °F 47 °F 28 °F (1987)
Degree Days  
Heating Degree Days 2    
Growing Degree Days 13 (Base 50)    
Moisture  
Dew Point 61 °F    
Average Humidity 92    
Maximum Humidity 100    
Minimum Humidity 68    
Precipitation  
Precipitation 0.00 in - - ()
Sea Level Pressure  
Sea Level Pressure 30.07 in    
Wind  
Wind Speed 1 mph (WSW)    
Max Wind Speed 8 mph    
Max Gust Speed -    
Visibility 6 miles    
Events Fog , Rain    
Averages and records for this station are not official NWS values.
T = Trace of Precipitation, MM = Missing Value Source: NWS Daily Summary

Daily Weather History Graph

Daily Weather History Graph

Search for Another Location

Airport or City:

Trip Planner

Search our weather history database for the weather conditions in past years. The results will help you decide how hot, cold, wet, or windy it might be!

Date:

Astronomy

Oct. 12, 2013 Rise Set
Actual Time 7:00 AM CDT 6:20 PM CDT
Civil Twilight 6:33 AM CDT 6:46 PM CDT
Nautical Twilight 6:03 AM CDT 7:17 PM CDT
Astronomical Twilight 5:32 AM CDT 7:47 PM CDT
Moon 2:23 PM CDT (10/12) 12:09 AM CDT (10/12)
Length of Visible Light 12h 13m
Length of Day
11h 20m
First Quarter, 59% of the Moon is Illuminated
Oct 12
First Quarter
Oct 18
Full
Oct 26
Last Quarter
Nov 3
New
Nov 9
First Quarter

Hourly Weather History & Observations

Time (CDT) Temp. Dew Point Humidity Pressure Visibility Wind Dir Wind Speed Gust Speed Precip Events Conditions
12:15 AM 56.7 °F 56.7 °F 100% 30.02 in 2.0 mi Calm Calm - N/A   Clear
12:35 AM 55.9 °F 55.9 °F 100% 30.02 in 10.0 mi Calm Calm - N/A   Scattered Clouds
12:55 AM 56.1 °F 56.1 °F 100% 30.02 in 5.0 mi Calm Calm - N/A   Scattered Clouds
1:15 AM 56.5 °F 56.5 °F 100% 30.02 in 5.0 mi Calm Calm - N/A   Scattered Clouds
1:35 AM 56.5 °F 56.5 °F 100% 30.03 in 5.0 mi Calm Calm - N/A   Scattered Clouds
1:55 AM 56.3 °F 56.3 °F 100% 30.03 in 7.0 mi Calm Calm - N/A   Scattered Clouds
2:15 AM 55.6 °F 55.6 °F 100% 30.03 in 2.5 mi Calm Calm - N/A   Clear
2:35 AM 55.4 °F 55.4 °F 100% 30.03 in 0.8 mi Calm Calm - N/A   Mist
2:55 AM 54.7 °F 54.7 °F 100% 30.02 in 5.0 mi Calm Calm - N/A   Clear
3:15 AM 54.9 °F 54.9 °F 100% 30.02 in 4.0 mi Calm Calm - N/A   Clear
3:35 AM 54.5 °F 54.5 °F 100% 30.02 in 4.0 mi Calm Calm - N/A   Clear
3:55 AM 54.5 °F 54.5 °F 100% 30.02 in 4.0 mi Calm Calm - N/A   Clear
4:15 AM 54.9 °F 54.9 °F 100% 30.01 in 5.0 mi Calm Calm - N/A   Clear
4:35 AM 55.4 °F 55.4 °F 100% 30.02 in 4.0 mi Calm Calm - N/A   Clear
4:55 AM 55.2 °F 55.2 °F 100% 30.02 in 5.0 mi Calm Calm - N/A   Clear
5:15 AM 54.3 °F 54.3 °F 100% 30.02 in 1.0 mi Calm Calm - N/A   Mist
5:35 AM 53.8 °F 53.8 °F 100% 30.03 in 3.0 mi Calm Calm - N/A   Clear
5:55 AM 54.9 °F 54.9 °F 100% 30.03 in 4.0 mi Calm Calm - N/A   Clear
6:35 AM 55.2 °F 55.2 °F 100% 30.04 in 4.0 mi Calm Calm - N/A   Clear
6:55 AM 54.9 °F 54.9 °F 100% 30.04 in 3.0 mi Calm Calm - N/A   Clear
7:15 AM 55.4 °F 55.4 °F 100% 30.04 in 0.8 mi Calm Calm - N/A   Mist
7:35 AM 55.6 °F 55.6 °F 100% 30.03 in 5.0 mi Calm Calm - N/A   Clear
7:55 AM 57.6 °F 57.6 °F 100% 30.04 in 5.0 mi Calm Calm - N/A   Clear
8:15 AM 60.8 °F 60.8 °F 100% 30.05 in 7.0 mi Calm Calm - N/A   Clear
8:35 AM 62.6 °F 62.6 °F 100% 30.05 in 10.0 mi Calm Calm - N/A   Clear
8:55 AM 63.5 °F 61.7 °F 94% 30.06 in 10.0 mi Calm Calm - N/A   Clear
9:15 AM 64.2 °F 62.1 °F 93% 30.07 in 10.0 mi Calm Calm - N/A   Clear
9:35 AM 66.9 °F 62.2 °F 85% 30.07 in 10.0 mi Calm Calm - N/A   Clear
9:55 AM 69.3 °F 62.2 °F 78% 30.08 in 10.0 mi Calm Calm - N/A   Clear
10:15 AM 71.8 °F 62.8 °F 73% 30.07 in 10.0 mi SSW 5.8 mph - N/A   Scattered Clouds
10:35 AM 73.0 °F 63.1 °F 71% 30.08 in 10.0 mi WSW 5.8 mph - N/A   Scattered Clouds
10:55 AM 73.6 °F 62.6 °F 68% 30.08 in 10.0 mi SW 5.8 mph - N/A   Clear
11:15 AM 73.4 °F 62.8 °F 69% 30.09 in 10.0 mi SW 5.8 mph - N/A   Scattered Clouds
11:35 AM 73.0 °F 63.1 °F 71% 30.09 in 10.0 mi SSW 4.6 mph - N/A   Scattered Clouds
11:55 AM 73.2 °F 63.1 °F 71% 30.10 in 10.0 mi South 8.1 mph - N/A   Clear
12:15 PM 72.1 °F 62.6 °F 72% 30.11 in 10.0 mi SW 6.9 mph - N/A   Clear
12:35 PM 71.6 °F 63.1 °F 75% 30.10 in 10.0 mi SW 6.9 mph - N/A   Clear
12:55 PM 71.4 °F 63.7 °F 76% 30.09 in 10.0 mi SW 6.9 mph - N/A   Scattered Clouds
1:15 PM 71.1 °F 63.5 °F 77% 30.09 in 10.0 mi SW 8.1 mph - N/A   Scattered Clouds
1:35 PM 70.3 °F 63.7 °F 79% 30.07 in 10.0 mi WSW 8.1 mph - N/A Rain Rain
1:55 PM 69.1 °F 64.2 °F 84% 30.05 in 7.0 mi Calm Calm - N/A Rain Rain
2:15 PM 68.9 °F 66.6 °F 92% 30.03 in 7.0 mi ESE 4.6 mph - N/A Rain Light Rain
2:35 PM 69.6 °F 66.4 °F 89% 30.05 in 10.0 mi South 5.8 mph - N/A   Mostly Cloudy
2:55 PM 69.8 °F 66.4 °F 89% 30.06 in 10.0 mi Calm Calm - N/A   Overcast
3:15 PM 70.7 °F 66.7 °F 87% 30.05 in 10.0 mi Calm Calm - N/A   Mostly Cloudy
3:35 PM 72.5 °F 66.6 °F 82% 30.06 in 10.0 mi WSW 4.6 mph - N/A   Clear
3:55 PM 72.5 °F 67.1 °F 83% 30.06 in 10.0 mi West 8.1 mph - N/A   Clear
4:15 PM 72.9 °F 67.5 °F 83% 30.06 in 10.0 mi WNW 6.9 mph - N/A   Scattered Clouds
4:35 PM 72.0 °F 66.6 °F 83% 30.06 in 10.0 mi WNW 8.1 mph - N/A   Mostly Cloudy
4:55 PM 71.1 °F 66.4 °F 85% 30.07 in 10.0 mi West 5.8 mph - N/A   Mostly Cloudy
5:15 PM 70.3 °F 67.1 °F 89% 30.07 in 10.0 mi WNW 5.8 mph - N/A   Overcast
5:35 PM 69.8 °F 66.4 °F 89% 30.08 in 10.0 mi NW 6.9 mph - N/A   Overcast
5:55 PM 69.3 °F 66.4 °F 91% 30.08 in 10.0 mi Calm Calm - N/A   Overcast
6:15 PM 69.3 °F 66.4 °F 91% 30.08 in 10.0 mi Calm Calm - N/A   Overcast
6:35 PM 68.9 °F 66.2 °F 91% 30.08 in 10.0 mi Calm Calm - N/A   Mostly Cloudy
6:55 PM 67.1 °F 65.3 °F 94% 30.08 in 10.0 mi Calm Calm - N/A   Mostly Cloudy
7:15 PM 65.7 °F 64.8 °F 97% 30.09 in 10.0 mi Calm Calm - N/A   Mostly Cloudy
7:35 PM 64.8 °F 64.8 °F 100% 30.10 in 7.0 mi Calm Calm - N/A   Scattered Clouds
7:55 PM 64.2 °F 64.2 °F 100% 30.11 in 4.0 mi Calm Calm - N/A   Scattered Clouds
8:15 PM 63.3 °F 63.3 °F 100% 30.11 in 0.2 mi Calm Calm - N/A Fog Fog
8:35 PM 62.4 °F 62.4 °F 100% 30.12 in 0.8 mi Calm Calm - N/A   Mist
8:55 PM 60.1 °F 60.1 °F 100% 30.13 in 0.2 mi Calm Calm - N/A Fog Fog
9:15 PM 60.3 °F 60.3 °F 100% 30.13 in 0.2 mi Calm Calm - N/A Fog Fog
9:35 PM 58.8 °F 58.8 °F 100% 30.14 in 0.2 mi Calm Calm - N/A Fog Fog
9:55 PM 59.0 °F 59.0 °F 100% 30.15 in 0.2 mi Calm Calm - N/A Fog Fog
10:15 PM 59.2 °F 59.2 °F 100% 30.15 in 0.2 mi Calm Calm - N/A Fog Fog
10:35 PM 60.3 °F 60.3 °F 100% 30.15 in 0.2 mi Calm Calm - N/A Fog Fog
10:55 PM 59.7 °F 59.7 °F 100% 30.16 in 0.2 mi Calm Calm - N/A Fog Fog
11:15 PM 60.1 °F 60.1 °F 100% 30.16 in 0.2 mi WNW 3.5 mph - N/A Fog Fog
11:35 PM 62.2 °F 62.2 °F 100% 30.16 in 2.5 mi WNW 5.8 mph - N/A   Scattered Clouds
11:55 PM 61.9 °F 61.9 °F 100% 30.16 in 2.5 mi Calm Calm - N/A   Scattered Clouds